Regional Weather Roundup
Issued by NWS

Home | Current Version | Previous Version | Graphics & Text | Print | Product List | Glossary On
Versions: 1 2 3 4 5 6 7 8 9 10 11 12 13 14 15 16 17 18 19 20 21 22 23 24 25 26 27 28 29 30 31 32 33 34 35 36 37 38 39 40 41 42 43 44 45 46 47 48 49 50
000
ASUS43 KIND 010759
RWRIN

WEATHER ROUNDUP FOR INDIANA
NATIONAL WEATHER SERVICE INDIANAPOLIS IN
300 AM EST SUN FEB 01 2015

NOTE: "FAIR" INDICATES FEW OR NO CLOUDS BELOW 12,000 FEET WITH NO
SIGNIFICANT WEATHER AND/OR OBSTRUCTIONS TO VISIBILITY.

* - STATION DOES NOT REPORT WEATHER SUCH AS PRECIPITATION OR FOG.

+ - STATION NOT QUALITY CONTROLLED BY THE NATIONAL WEATHER SERVICE.
    USE DATA WITH CAUTION...ESPECIALLY DEWPOINT AND RELATIVE
    HUMIDITY OBSERVATIONS.

INZ001>003-010>013-019-020-010900-
NORTHWEST INDIANA

CITY           SKY/WX    TMP DP  RH WIND       PRES   REMARKS
VALPARAISO     NOT AVBL

$$

LMZ046-743>745-010900-
SOUTHERN LAKE MICHIGAN

STATION/POSITION TIME  TEMP WIND        PRES
                       AIR  DIR/SP/G
                 (UTC) (F)  (DEG/KT/KT) (MB)
MICHIGAN CITY    0700   30   50/  5/  7   N/A

$$

INZ004-005-014>016-021>024-010900-
NORTH CENTRAL INDIANA

CITY           SKY/WX    TMP DP  RH WIND       PRES   REMARKS
GOSHEN         LGT SNOW  32  31  96 CALM      30.12F FOG
PERU/GRISSOM   LGT SNOW  32  32 100 S5        30.11F FOG     WCI  27
SOUTH BEND     LGT SNOW  31  29  92 E7        30.13F VSB 1   WCI  24

$$

INZ006>009-017-018-025>027-010900-
NORTHEAST INDIANA

CITY           SKY/WX    TMP DP  RH WIND       PRES   REMARKS
ANGOLA *+      CLOUDY    30  28  93 CALM      30.13S
FORT WAYNE     LGT SNOW  32  31  96 CALM      30.14F FOG

$$

INZ028-029-035-036-043>045-051>053-010900-
WEST CENTRAL INDIANA

CITY           SKY/WX    TMP DP  RH WIND       PRES   REMARKS
GREENCASTLE +  CLOUDY    32  28  86 E5        30.10F FOG     WCI  27
LAFAYETTE      CLOUDY    32  32 100 E5        30.10F FOG     WCI  27
TERRE HAUTE    LGT RAIN  33  30  88 E9        30.08F WCI  25

$$

INZ030>032-037>040-046>048-054>057-064-065-010900-
CENTRAL INDIANA

CITY           SKY/WX    TMP DP  RH WIND       PRES   REMARKS
INDIANAPOLIS   CLOUDY    30  30 100 E8        30.11F FOG     WCI  22
-EAGLE CREEK   CLOUDY    32  31  96 SE5       30.10F FOG     WCI  27
KOKOMO *+      CLOUDY    34  30  86 SE6       30.12F WCI  29
MT COMFORT *+  CLOUDY    32 N/A N/A E5        30.13F WCI  27
SHELBYVILLE    CLOUDY    34  31  88 E5        30.13F FOG     WCI  30

$$

INZ033-034-041-042-049-050-058-059-010900-
EAST CENTRAL INDIANA

CITY           SKY/WX    TMP DP  RH WIND       PRES   REMARKS
MUNCIE         MIX PCPN  33  31  92 S5        30.14F FOG     WCI  29

$$

INZ060-061-067>069-081>083-085>088-010900-
SOUTHWEST INDIANA

CITY           SKY/WX    TMP DP  RH WIND       PRES   REMARKS
EVANSVILLE     CLOUDY    39  24  55 E5        30.07F
HUNTINGBURG *+ CLOUDY    37  23  56 E6        30.09F

$$

INZ062-063-066-070>080-084-089>092-010900-
SOUTH CENTRAL AND SOUTHEAST INDIANA

CITY           SKY/WX    TMP DP  RH WIND       PRES   REMARKS
BLOOMINGTON    CLOUDY    33  27  78 SE6       30.08F WCI  28
SEYMOUR +      CLOUDY    34  28  80 E7        30.11F WCI  28

$$



USA.gov is the U.S. government's official web portal to all federal, state and local government web resources and services.